Location: Fort Collins
(40.5850°N, 105.0840°W)
Time: 21:07:29
(UTC-07:00)

Cosmos 2297 Rocket - Visible Passes

Search period start: 20 December 2014 00:00
Search period end: 30 December 2014 00:00
Orbit: 838 x 845 km, 71.0° (Epoch: 20 December)

Date Brightness Start Highest point End Pass type
(mag) Time Alt. Az. Time Alt. Az. Time Alt. Az.
20 Dec 2.6 17:09:25 10° SSW 17:15:01 67° WNW 17:20:40 10° NNE visible
20 Dec 4.8 18:58:27 10° WNW 19:00:12 11° NW 19:01:57 10° NNW visible
21 Dec 4.7 18:43:03 10° WNW 18:45:07 12° NW 18:47:11 10° NNW visible
22 Dec 4.7 18:27:41 10° WNW 18:30:01 13° NW 18:32:22 10° NNW visible
23 Dec 4.7 18:12:22 10° WNW 18:14:56 13° NW 18:17:31 10° NNW visible
24 Dec 4.6 17:57:04 10° WNW 17:59:51 14° NW 18:02:39 10° NNW visible
25 Dec 4.6 17:41:47 10° W 17:44:46 14° NW 17:47:47 10° NNW visible
26 Dec 4.5 17:26:31 10° W 17:29:42 15° NW 17:32:53 10° NNW visible
27 Dec 4.5 17:11:16 10° W 17:14:37 16° NW 17:17:58 10° NNW visible
